Weather Roundup
Issued by NWS Corpus Christi, TX

Home | Current Version | Previous Version | Text Only | Print | Product List | Glossary On
Versions: 1 2 3 4 5 6 7 8 9 10 11 12 13 14 15 16 17 18 19 20 21 22 23 24 25 26 27 28 29 30 31 32 33 34 35 36 37 38 39 40 41 42 43 44 45 46 47 48 49 50
000
ASUS44 KCRP 222310
HRRCRP

SOUTH TEXAS REGIONAL WEATHER ROUNDUP
NATIONAL WEATHER SERVICE CORPUS CHRISTI TX
600 PM CDT FRI MAY 22 2015


TXZ229>244-230000-
...CORPUS CHRISTI AREA OBSERVATIONS...

CITY           SKY/WX    TMP DP  RH WIND       PRES   REMARKS
CORPUS CHRISTI PTSUNNY   83  75  77 SE15      30.00S HX  90
NAS CORPUS CHR PTSUNNY   82  77  84 SE16      30.00F HX  90
ROCKPORT       PTSUNNY   83  76  79 SE18      30.01S HX  91
KINGSVILLE NAS PTSUNNY   84  78  82 SE16G26   29.98S HX  95
ALICE          PTSUNNY   85  75  72 SE16G22   29.97S HX  93
FALFURRIAS     PTSUNNY   83  78  83 SE10      29.97S HX  92
$$

...VICTORIA AREA OBSERVATIONS...

CITY           SKY/WX    TMP DP  RH WIND       PRES   REMARKS
VICTORIA       PTSUNNY   79  75  87 SE16G23   30.03F
BEEVILLE       FAIR      85  76  74 SE17      30.00S HX  94
PLEASANTON     PTSUNNY   86  72  62 SE10G17   29.98F HX  92
SAN ANTONIO    PTSUNNY   86  73  65 SE15      30.02F HX  93
$$

...LAREDO AREA OBSERVATIONS...

CITY           SKY/WX    TMP DP  RH WIND       PRES   REMARKS
LAREDO         MOSUNNY   89  70  53 S16       29.96F HX  94
COTULLA        MOSUNNY   89  71  55 SE15G21   29.96F HX  95
DEL RIO        MOSUNNY   84  70  62 E15       29.95F
MCALLEN        MOSUNNY   89  74  60 SE9       29.96F HX  98
HEBBRONVILLE     N/A     87  70  57 SE12      29.98S HX  92
$$

...OTHER TEXAS OBSERVATIONS...

CITY           SKY/WX    TMP DP  RH WIND       PRES   REMARKS
BROWNSVILLE    MOSUNNY   85  74  69 SE16      29.98S HX  92
HOUSTON        PTSUNNY   77  68  73 SE13      30.10S
COL. STATION   CLOUDY    78  69  73 SE6       30.09R
AUSTIN         CLOUDY    77  71  82 SE10      30.04F
WACO           CLOUDY    75  67  76 SE13      30.08F
FORT WORTH     CLOUDY    67  62  84 NE7       30.09S
WICHITA FALLS  CLOUDY    59  57  93 E14       30.10F
LUBBOCK        CLOUDY    63  59  87 SE9       30.06F
EL PASO        PTSUNNY   89  16   7 SW21      29.87F
$$

...MARINE OBSERVATIONS...

STATION/POSITION TIME  SKY/WX   TEMP    WIND        PRES    VSBY  WAVE   SWELL
                                AIR SEA DIR/SP/G                  HT/PER HT/PER
                 (UTC)          (F)     (DEG/KT/KT) (MB)    (MI)  (FT/S) (FT/S)
PORT ARANSAS     2300            81 82  120/ 15/ 17 1016.8F
BUOY 90 E PORT A 2250            80 80  170/ 14/ 17 1017.7F         4/ 6
BUOY 45 SE BAFFI 2250            81 81  150/ 14/ 17 1015.7F         4/ 6   2/15
BUOY 200 E PT IS 2250            82 82  120/  8/ 10 1017.9R         2/ 6   2/ 6
BUOY 15 E GALVES 2250            78 80  100/ 16/ 17 1018.4R         3/ 4
$$



USA.gov is the U.S. government's official web portal to all federal, state and local government web resources and services.